DW4993 Weather Reports


Display with metric or nautical units.
time (UTC)temp
F
wind
direction
speed
MPH
gust
MPH
rain 1hr
in
rain 24hr
in
rain mn
in
humidity
%
barometer
mb
20260507141805 57 10 5.0 12.0 0.00 0.00 0.00 45 1008.3
20260507141304 57 11 6.0 12.0 0.00 0.00 0.00 44 1008.3
20260507140805 57 25 3.0 10.0 0.00 0.00 0.00 45 1008.3
20260507135306 56 17 3.0 7.0 0.00 0.00 0.00 47 1008.2
20260507134805 56 7 3.0 5.0 0.00 0.00 0.00 48 1008.1
20260507134306 55 4 1.0 5.0 0.00 0.00 0.00 49 1008.0
20260507133304 53 9 3.0 5.0 0.00 0.00 0.00 52 1008.0
20260507132805 53 12 2.0 3.0 0.00 0.00 0.00 53 1008.0
20260507132307 53 14 2.0 6.0 0.00 0.00 0.00 53 1007.9
20260507131805 53 332 1.0 5.0 0.00 0.00 0.00 53 1007.9
20260507131304 53 0 2.0 5.0 0.00 0.00 0.00 53 1007.9
20260507130806 52 1 2.0 8.0 0.00 0.00 0.00 53 1008.0
20260507130305 52 14 3.0 6.0 0.00 0.00 0.00 54 1008.0
20260507125307 53 358 5.0 9.0 0.00 0.00 0.00 53 1007.9
20260507124806 53 4 3.0 10.0 0.00 0.00 0.00 53 1007.9
20260507124305 53 10 5.0 10.0 0.00 0.00 0.00 53 1008.0
20260507123805 52 352 2.0 8.0 0.00 0.00 0.00 53 1008.0
20260507123305 52 5 5.0 9.0 0.00 0.00 0.00 53 1008.0
20260507122806 52 357 2.0 3.0 0.00 0.00 0.00 53 1007.9
20260507122307 52 323 0.0 3.0 0.00 0.00 0.00 52 1007.9
20260507121304 51 298 1.0 3.0 0.00 0.00 0.00 52 1007.8
20260507120806 51 292 1.0 3.0 0.00 0.00 0.00 52 1007.7
20260507120304 50 280 1.0 3.0 0.00 0.00 0.00 53 1007.6
20260507115805 51 279 1.0 2.0 0.00 0.00 0.00 53 1007.5
20260507114806 51 277 0.0 0.0 0.00 0.00 0.00 53 1007.4
20260507113805 51 277 0.0 2.0 0.00 0.00 0.00 53 1007.4
20260507113305 51 277 1.0 2.0 0.00 0.00 0.00 53 1007.4
20260507112307 52 277 0.0 2.0 0.00 0.00 0.00 53 1007.4
20260507111805 52 277 1.0 3.0 0.00 0.00 0.00 53 1007.3
20260507111305 52 277 0.0 2.0 0.00 0.00 0.00 53 1007.2
20260507105805 52 287 0.0 3.0 0.00 0.00 0.00 53 1007.3
20260507105306 52 288 1.0 3.0 0.00 0.00 0.00 53 1007.3
20260507104806 52 293 1.0 3.0 0.00 0.00 0.00 54 1007.3
20260507104305 52 293 1.0 6.0 0.00 0.00 0.00 54 1007.3
20260507102806 53 266 2.0 3.0 0.00 0.00 0.00 58 1007.3
20260507102307 53 268 1.0 2.0 0.00 0.00 0.00 58 1007.3
20260507101805 53 268 0.0 0.0 0.00 0.00 0.00 58 1007.3
20260507101305 53 268 1.0 3.0 0.00 0.00 0.00 58 1007.4
20260507100806 53 268 2.0 3.0 0.00 0.00 0.00 57 1007.4
20260507095805 53 273 2.0 5.0 0.00 0.00 0.00 56 1007.5
20260507095306 53 284 2.0 3.0 0.00 0.00 0.00 57 1007.4
20260507094305 53 268 2.0 7.0 0.00 0.00 0.00 58 1007.5
20260507092806 52 246 3.0 6.0 0.00 0.00 0.00 55 1007.5
20260507091305 52 264 2.0 3.0 0.00 0.00 0.00 55 1007.5
20260507090305 52 258 1.0 2.0 0.00 0.00 0.00 54 1007.5
20260507085306 52 258 2.0 3.0 0.00 0.00 0.00 53 1007.4
20260507084806 52 258 2.0 3.0 0.00 0.00 0.00 53 1007.5
20260507083805 52 254 1.0 3.0 0.00 0.00 0.00 54 1007.4
20260507083304 53 254 2.0 3.0 0.00 0.00 0.00 55 1007.3
20260507082806 53 253 1.0 5.0 0.00 0.00 0.00 56 1007.3
20260507081805 53 256 1.0 3.0 0.00 0.00 0.00 57 1007.5
20260507081305 53 256 2.0 3.0 0.00 0.00 0.00 58 1007.6
20260507080806 53 256 1.0 2.0 0.00 0.00 0.00 57 1007.6
20260507075805 53 256 1.0 2.0 0.00 0.00 0.00 55 1007.7
20260507075307 53 256 1.0 5.0 0.00 0.00 0.00 54 1007.7
20260507074806 52 240 2.0 3.0 0.00 0.00 0.00 53 1007.7
20260507074305 52 200 2.0 3.0 0.00 0.00 0.00 54 1007.8
20260507073805 52 115 1.0 2.0 0.00 0.00 0.00 54 1007.8
20260507073305 52 115 1.0 2.0 0.00 0.00 0.00 53 1007.9
20260507072806 52 115 0.0 3.0 0.00 0.00 0.00 54 1008.0
20260507072307 52 115 1.0 2.0 0.00 0.00 0.00 54 1008.0
20260507071805 51 112 0.0 2.0 0.00 0.00 0.00 52 1008.0
20260507071305 51 112 0.0 1.0 0.00 0.00 0.00 52 1008.0
20260507065804 51 112 0.0 1.0 0.00 0.00 0.00 52 1008.2
20260507065306 51 112 0.0 1.0 0.00 0.00 0.00 52 1008.1
20260507064806 51 112 0.0 0.0 0.00 0.00 0.00 51 1008.2
20260507064305 51 112 0.0 0.0 0.00 0.00 0.00 51 1008.2
20260507063804 51 112 1.0 2.0 0.00 0.00 0.00 51 1008.2
20260507063305 51 112 0.0 0.0 0.00 0.00 0.00 50 1008.2
20260507062806 51 112 0.0 0.0 0.00 0.00 0.00 49 1008.2
20260507062306 51 112 0.0 0.0 0.00 0.00 0.00 49 1008.2
20260507061805 51 112 0.0 0.0 0.00 0.00 0.00 49 1008.2
20260507061305 51 112 0.0 0.0 0.00 0.00 0.00 48 1008.1
20260507060819 51 112 0.0 0.0 0.00 0.00 0.00 48 1008.1
20260507060306 51 112 1.0 3.0 0.00 0.00 0.00 49 1008.2
20260507055306 52 116 1.0 3.0 0.00 0.00 0.00 48 1007.9
20260507054805 52 126 0.0 0.0 0.00 0.00 0.00 46 1007.7
20260507054306 52 126 0.0 0.0 0.00 0.00 0.00 46 1007.5
20260507053804 52 126 0.0 0.0 0.00 0.00 0.00 44 1007.5
20260507053305 52 126 0.0 1.0 0.00 0.00 0.00 43 1007.5
20260507052805 52 126 0.0 0.0 0.00 0.00 0.00 44 1007.4
20260507052307 53 126 0.0 0.0 0.00 0.00 0.00 43 1007.4
20260507051805 53 126 0.0 0.0 0.00 0.00 0.00 43 1007.3
20260507051305 53 126 0.0 0.0 0.00 0.00 0.00 42 1007.3
20260507050805 53 126 0.0 0.0 0.00 0.00 0.00 42 1007.4
20260507050306 53 126 0.0 0.0 0.00 0.00 0.00 42 1007.3
20260507045806 54 126 2.0 3.0 0.00 0.00 0.00 42 1007.3
20260507044805 53 133 0.0 0.0 0.00 0.00 0.00 43 1007.2
20260507044305 53 133 0.0 0.0 0.00 0.00 0.00 43 1007.1
20260507043806 53 133 0.0 0.0 0.00 0.00 0.00 43 1007.1
20260507043305 54 133 0.0 0.0 0.00 0.00 0.00 43 1007.0
20260507042806 54 133 0.0 0.0 0.00 0.00 0.00 43 1006.9
20260507042306 54 133 0.0 1.0 0.00 0.00 0.00 43 1006.7
20260507041805 54 133 0.0 2.0 0.00 0.00 0.00 44 1006.5
20260507041305 54 94 0.0 1.0 0.00 0.00 0.00 44 1006.4
20260507040806 55 94 0.0 1.0 0.00 0.00 0.00 45 1006.4
20260507040305 55 94 0.0 0.0 0.00 0.00 0.00 45 1006.4
20260507035805 55 94 0.0 0.0 0.00 0.00 0.00 45 1006.4
20260507035306 56 94 0.0 0.0 0.00 0.00 0.00 45 1006.4
20260507034806 56 94 0.0 2.0 0.00 0.00 0.00 44 1006.2
20260507034305 56 94 1.0 2.0 0.00 0.00 0.00 44 1006.0
20260507033804 57 94 0.0 2.0 0.00 0.00 0.00 43 1005.9
20260507033305 57 94 1.0 3.0 0.00 0.00 0.00 43 1005.9
20260507032806 57 94 1.0 3.0 0.00 0.00 0.00 43 1005.9
20260507032306 58 94 1.0 3.0 0.00 0.00 0.00 42 1005.7
20260507031805 58 95 1.0 3.0 0.00 0.00 0.00 42 1005.7
20260507031307 58 91 3.0 6.0 0.00 0.00 0.00 41 1005.6
20260507030805 59 26 2.0 5.0 0.00 0.00 0.00 40 1005.6
20260507030305 59 121 2.0 5.0 0.00 0.00 0.00 38 1005.6
20260507025306 60 95 4.0 10.0 0.00 0.00 0.00 37 1005.5
20260507024805 61 111 5.0 13.0 0.00 0.00 0.00 35 1005.4
20260507023805 62 94 5.0 8.0 0.00 0.00 0.00 33 1005.3
20260507023305 62 72 7.0 14.0 0.00 0.00 0.00 32 1005.2
20260507022805 63 82 6.0 12.0 0.00 0.00 0.00 31 1005.0
20260507022306 64 73 5.0 13.0 0.00 0.00 0.00 30 1004.8
20260507021805 65 74 5.0 12.0 0.00 0.00 0.00 29 1004.8
20260507021305 65 65 3.0 10.0 0.00 0.00 0.00 30 1004.7
20260507020305 66 77 3.0 13.0 0.00 0.00 0.00 30 1004.5
20260507014804 66 54 5.0 9.0 0.00 0.00 0.00 31 1004.4
20260507014305 66 48 4.0 9.0 0.00 0.00 0.00 30 1004.4
20260507013805 66 44 5.0 14.0 0.00 0.00 0.00 30 1004.5
20260507013305 66 29 4.0 13.0 0.00 0.00 0.00 29 1004.5
20260507012805 66 47 3.0 8.0 0.00 0.00 0.00 29 1004.5
20260507012306 66 31 2.0 9.0 0.00 0.00 0.00 29 1004.5
20260507010305 67 46 4.0 12.0 0.00 0.00 0.00 29 1004.6
20260507004805 67 50 3.0 10.0 0.00 0.00 0.00 30 1004.6
20260507004305 67 358 5.0 10.0 0.00 0.00 0.00 29 1004.6
20260507003804 67 9 5.0 13.0 0.00 0.00 0.00 30 1004.6
20260507003306 67 47 5.0 12.0 0.00 0.00 0.00 31 1004.5
20260507002805 68 10 8.0 17.0 0.00 0.00 0.00 30 1004.4
20260507002306 69 9 9.0 25.0 0.00 0.00 0.00 29 1004.3
20260507001804 70 16 2.0 5.0 0.00 0.00 0.00 27 1004.1
20260507001306 70 31 1.0 2.0 0.00 0.00 0.00 27 1004.0
20260507000805 70 31 1.0 5.0 0.00 0.00 0.00 26 1003.8
20260507000306 71 26 2.0 5.0 0.00 0.00 0.00 26 1003.8
20260506235806 71 19 2.0 5.0 0.00 0.00 0.00 26 1003.7
20260506234805 71 19 1.0 3.0 0.00 0.00 0.00 27 1003.7
20260506233805 69 356 1.0 3.0 0.00 0.00 0.00 28 1003.8
20260506233305 69 356 1.0 2.0 0.00 0.00 0.00 30 1003.7
20260506232805 68 356 1.0 2.0 0.00 0.00 0.00 30 1003.8
20260506231806 68 8 3.0 12.0 0.00 0.00 0.00 30 1004.3
20260506230805 70 287 3.0 15.0 0.00 0.00 0.00 28 1004.3
20260506230305 71 30 3.0 8.0 0.00 0.00 0.00 25 1004.4
20260506225806 72 17 3.0 8.0 0.00 0.00 0.00 24 1004.3
20260506225306 72 75 2.0 6.0 0.00 0.00 0.00 24 1004.2
20260506224805 72 44 1.0 3.0 0.00 0.00 0.00 23 1004.2
20260506224305 72 30 2.0 5.0 0.00 0.00 0.00 24 1004.3
20260506223806 72 72 1.0 5.0 0.00 0.00 0.00 23 1004.4
20260506223305 72 50 3.0 9.0 0.00 0.00 0.00 24 1004.5
20260506222804 73 21 1.0 5.0 0.00 0.00 0.00 23 1004.5
20260506222306 73 71 4.0 10.0 0.00 0.00 0.00 22 1004.6
20260506221805 74 33 3.0 5.0 0.00 0.00 0.00 23 1004.6
20260506221304 74 28 5.0 12.0 0.00 0.00 0.00 23 1004.7
20260506220805 74 53 3.0 10.0 0.00 0.00 0.00 22 1004.8
20260506220305 73 52 3.0 10.0 0.00 0.00 0.00 25 1004.8
20260506215805 73 35 2.0 10.0 0.00 0.00 0.00 24 1004.8
20260506214805 72 6 3.0 8.0 0.00 0.00 0.00 24 1004.9
20260506214305 72 23 2.0 6.0 0.00 0.00 0.00 24 1005.0
20260506213805 72 10 2.0 8.0 0.00 0.00 0.00 23 1005.0
20260506213305 73 53 4.0 8.0 0.00 0.00 0.00 23 1005.2
20260506212805 73 43 5.0 12.0 0.00 0.00 0.00 24 1005.3
20260506212306 72 26 3.0 6.0 0.00 0.00 0.00 25 1005.3
20260506211805 72 26 1.0 5.0 0.00 0.00 0.00 24 1005.4
20260506211305 72 3 2.0 12.0 0.00 0.00 0.00 24 1005.5
20260506210306 73 4 5.0 9.0 0.00 0.00 0.00 24 1005.6
20260506205805 73 79 3.0 7.0 0.00 0.00 0.00 23 1005.6
20260506205306 72 37 2.0 8.0 0.00 0.00 0.00 23 1005.7
20260506204306 72 36 3.0 9.0 0.00 0.00 0.00 24 1005.8
20260506203804 72 60 3.0 9.0 0.00 0.00 0.00 23 1005.8
20260506203305 72 37 3.0 7.0 0.00 0.00 0.00 24 1005.9
20260506202807 72 355 2.0 5.0 0.00 0.00 0.00 25 1006.0
20260506202306 72 46 1.0 3.0 0.00 0.00 0.00 23 1006.0
20260506201805 71 39 1.0 3.0 0.00 0.00 0.00 25 1006.1
20260506201305 72 40 2.0 8.0 0.00 0.00 0.00 23 1006.2
20260506200805 71 33 4.0 7.0 0.00 0.00 0.00 25 1006.3
20260506200305 71 1 3.0 6.0 0.00 0.00 0.00 25 1006.4
20260506195306 70 29 1.0 5.0 0.00 0.00 0.00 23 1006.6
20260506194805 70 358 3.0 6.0 0.00 0.00 0.00 27 1006.6
20260506194306 70 290 3.0 3.0 0.00 0.00 0.00 24 1006.6
20260506193805 70 352 2.0 5.0 0.00 0.00 0.00 24 1006.6
20260506193304 70 24 2.0 5.0 0.00 0.00 0.00 25 1006.8
20260506192805 70 18 2.0 3.0 0.00 0.00 0.00 26 1006.9
20260506192306 69 233 1.0 5.0 0.00 0.00 0.00 25 1006.9
20260506191805 69 237 1.0 3.0 0.00 0.00 0.00 24 1007.0
20260506191305 69 236 2.0 3.0 0.00 0.00 0.00 25 1007.1
20260506190805 69 202 1.0 6.0 0.00 0.00 0.00 27 1007.2
20260506190305 68 215 2.0 6.0 0.00 0.00 0.00 26 1007.3
20260506185804 68 303 0.0 3.0 0.00 0.00 0.00 26 1007.4
20260506185307 68 252 2.0 6.0 0.00 0.00 0.00 25 1007.5
20260506184805 68 235 3.0 6.0 0.00 0.00 0.00 25 1007.6
20260506184306 67 230 1.0 3.0 0.00 0.00 0.00 28 1007.6
20260506183805 67 189 2.0 5.0 0.00 0.00 0.00 27 1007.7
20260506183304 67 233 5.0 7.0 0.00 0.00 0.00 26 1007.9
20260506182307 65 230 2.0 6.0 0.00 0.00 0.00 28 1007.9
20260506181804 65 218 2.0 3.0 0.00 0.00 0.00 30 1008.1
20260506181305 64 250 2.0 5.0 0.00 0.00 0.00 29 1008.1
20260506180805 64 231 3.0 6.0 0.00 0.00 0.00 29 1008.1
20260506180306 63 191 3.0 6.0 0.00 0.00 0.00 29 1008.3
20260506175805 63 234 3.0 6.0 0.00 0.00 0.00 29 1008.3
20260506174805 62 207 2.0 6.0 0.00 0.00 0.00 31 1008.4
20260506174305 62 248 4.0 7.0 0.00 0.00 0.00 29 1008.6
20260506173804 61 206 3.0 8.0 0.00 0.00 0.00 30 1008.8
20260506173305 61 194 3.0 7.0 0.00 0.00 0.00 31 1008.9
20260506172804 60 197 4.0 8.0 0.00 0.00 0.00 31 1008.9
20260506172307 60 208 5.0 8.0 0.00 0.00 0.00 30 1009.0
20260506171805 59 221 2.0 6.0 0.00 0.00 0.00 32 1009.1
20260506171304 59 198 3.0 7.0 0.00 0.00 0.00 33 1009.2
20260506165805 58 196 3.0 7.0 0.00 0.00 0.00 32 1009.4
20260506165306 57 213 2.0 6.0 0.00 0.00 0.00 35 1009.5
20260506164804 56 216 2.0 7.0 0.00 0.00 0.00 35 1009.6
20260506164305 56 237 4.0 8.0 0.00 0.00 0.00 35 1009.7
20260506163804 56 240 5.0 7.0 0.00 0.00 0.00 35 1009.7
20260506163304 55 222 5.0 8.0 0.00 0.00 0.00 35 1009.8
20260506162805 55 213 3.0 7.0 0.00 0.00 0.00 36 1009.8
20260506162307 55 220 3.0 7.0 0.00 0.00 0.00 36 1009.9
20260506161804 54 213 3.0 6.0 0.00 0.00 0.00 38 1010.0
20260506161306 53 228 3.0 5.0 0.00 0.00 0.00 37 1010.1
20260506160805 53 228 3.0 6.0 0.00 0.00 0.00 37 1010.3
20260506160304 52 224 3.0 7.0 0.00 0.00 0.00 39 1010.4
20260506155306 52 204 3.0 6.0 0.00 0.00 0.00 39 1010.6
20260506154804 51 211 3.0 6.0 0.00 0.00 0.00 40 1010.6
20260506154304 50 211 2.0 3.0 0.00 0.00 0.00 41 1010.6
20260506153805 50 214 3.0 6.0 0.00 0.00 0.00 42 1010.7
20260506152306 48 247 5.0 8.0 0.00 0.00 0.00 43 1010.9
20260506151804 47 230 5.0 7.0 0.00 0.00 0.00 44 1010.9
20260506150805 46 240 3.0 6.0 0.00 0.00 0.00 46 1011.1
20260506150305 45 249 2.0 5.0 0.00 0.00 0.00 48 1011.2
20260506145805 45 242 3.0 5.0 0.00 0.00 0.00 48 1011.2
20260506145306 44 270 2.0 3.0 0.00 0.00 0.00 49 1011.3
20260506144804 43 243 3.0 5.0 0.00 0.00 0.00 49 1011.3
20260506143804 42 225 3.0 7.0 0.00 0.00 0.00 51 1011.5
20260506143306 42 233 3.0 9.0 0.00 0.00 0.00 51 1011.6
20260506142805 41 241 4.0 9.0 0.00 0.00 0.00 52 1011.7
20260506142306 41 235 3.0 6.0 0.00 0.00 0.00 52 1011.7